Regional Weather Roundup
Issued by NWS

Home | Current Version | Previous Version | Graphics & Text | Print | Product List | Glossary On
Versions: 1 2 3 4 5 6 7 8 9 10 11 12 13 14 15 16 17 18 19 20 21 22 23 24 25 26 27 28 29 30 31 32 33 34 35 36 37 38 39 40 41 42 43 44 45 46 47 48 49 50
000
ASUS45 KBOU 050407
RWRCO

WEATHER ROUNDUP FOR COLORADO
NATIONAL WEATHER SERVICE DENVER/BOULDER CO
1000 PM MDT MON MAY 04 2015

NOTE: "FAIR" INDICATES FEW OR NO CLOUDS BELOW 12000 FEET WITH NO
SIGNIFICANT WEATHER AND/OR OBSTRUCTIONS TO VISIBILITY.

COZ001>005-013-030-031-050500-
...NORTHWEST COLORADO...

CITY           SKY/WX    TMP DP  RH WIND       PRES   REMARKS
CRAIG          PTCLDY    47  39  74 E6        30.01S
HAYDEN         NOT AVBL
MEEKER         PTCLDY    53  41  63 E6        30.00R
MOUNT WERNER   NOT AVBL
STEAMBOAT SPGS MOCLDY    47  37  68 CALM      30.05F
WALDEN         PTCLDY    43  36  75 SE3       30.11F
$$

COZ006>008-011-050500-
...WEST CENTRAL VALLEYS...

CITY           SKY/WX    TMP DP  RH WIND       PRES   REMARKS
GRAND JUNCTION MOCLDY    58  44  60 E12       29.91S
MONTROSE       CLOUDY    50  46  86 SE12      30.00R
EAGLE          MOCLDY    48  43  81 CALM      30.07R
RIFLE          MOCLDY    53  42  66 CALM      29.96R
DELTA          CLOUDY    59  44  57 SW3       29.96S
NUCLA          CLOUDY    52  43  71 S5        30.03S
$$

COZ017>023-064>068-050500-
...SOUTHWEST COLORADO...

CITY           SKY/WX    TMP DP  RH WIND       PRES   REMARKS
DURANGO        CLOUDY    47  45  93 NE7       30.03S
CORTEZ         CLOUDY    52  47  83 E7        29.99R
PAGOSA SPRINGS CLOUDY    43  41  92 N3        30.09F
TELLURIDE      CLOUDY    42  40  93 SE3       30.13F
WOLF CREEK PAS NOT AVBL
$$

COZ009-010-012-014-032>034-037-058>063-050500-
...CENTRAL COLORADO...

CITY           SKY/WX    TMP DP  RH WIND       PRES   REMARKS
ASPEN          CLOUDY    42  38  85 S3        30.07R
BUENA VISTA    NOT AVBL
COPPER MTN     CLOUDY    37  32  81 E3        30.27R
BERTHOUD PASS  HVY SNOW  28  19  69 E13       30.32R VSB 1/4 WCI  18
COTTONWOOD PAS LGT RAIN  41  36  81 CALM      30.20R
GUNNISON       MOCLDY    46  36  66 CALM      30.10S
KREMMLING      MOCLDY    45  37  76 CALM      30.12S
LEADVILLE      LGT RAIN  37  36  96 CALM      30.18R
MONARCH PASS   FOG       32  32 100 MISG      30.35R VSB<1/4
SALIDA         CLOUDY    48  42  79 N3        30.19R
SUNLIGHT       MOCLDY    37  34  87 NE5       30.23R
WILKERSON PASS SNOW      32  32 100 E9        30.28S VSB 1/4 WCI  24
$$

COZ069>075-050500-
...SAN LUIS VALLEY/SANGRE DE CRISTO MOUNTAINS...

CITY           SKY/WX    TMP DP  RH WIND       PRES   REMARKS
ALAMOSA        CLOUDY    47  38  71 SE5       30.06R
LA VETA PASS   CLOUDY    36  36 100 MISG      30.20R FOG
SAGUACHE       LGT RAIN  46  41  81 N15G22    30.10R
$$

COZ035-036-038>040-050500-
...NORTHERN COLORADO FRONT RANGE...

CITY           SKY/WX    TMP DP  RH WIND       PRES   REMARKS
DENVER INTL AP CLOUDY    50  48  93 E13       30.09S
DMNS CITY PARK   N/A     51  51  97 SE10G17   30.08S
AURORA         CLOUDY    50  50 100 E8        30.10R
FRONT RANGE AP NOT AVBL
ERIE MUNI ARPT CLOUDY    52  51  95 E9        30.09R
BOULDER MUN AP DRIZZLE   52  52 100 E3        30.09R
CENTENNIAL     CLOUDY    51  47  86 SE9       30.10R
BROOMFIELD     LGT RAIN  50  50 100 E10       30.10R FOG
FORT COLLINS   CLOUDY    50  46  87 E10G21    30.11R
LONGMONT       CLOUDY    54  51  90 E8        30.11R
$$

COZ041-046-047-076>085-087-088-050500-
...PIKES PEAK/PALMER DIVIDE AND SOUTHERN FOOTHILLS...

CITY           SKY/WX    TMP DP  RH WIND       PRES   REMARKS
COLO. SPRINGS  HVY RAIN  47  46  97 NE16      30.12R FOG
A. F. ACADEMY  CLOUDY    46  45  93 VRB5      30.13R
ELLICOTT         N/A      1  32 100 NE8       30.10R WCI -13
FALCON         RAIN      45  44  97 NE7       30.16R
FORT CARSON    NOT AVBL
LIMON          LGT RAIN  49  47  93 E7        30.10S
MONUMENT HILL  RAIN      43  43 100 E10       30.14R
TRINIDAD       MOCLDY    50  48  93 CALM      30.05S
$$

COZ042>045-048>051-090-091-050500-
...NORTHEAST COLORADO...

CITY           SKY/WX    TMP DP  RH WIND       PRES   REMARKS
GREELEY ARPT   CLOUDY    50  41  71 E9        30.11R
AKRON          CLOUDY    46  45  96 E13       30.12R FOG
BURLINGTON     CLOUDY    50  46  86 E13       30.10F
WRAY           CLOUDY    49  46  90 NE5       30.13R
STERLING       CLOUDY    46  45  93 E7        30.10F
HOLYOKE        NOT AVBL
FORT MORGAN    CLOUDY    47  44  88 NE10      30.11R
$$

COZ086-089-092>099-050500-
...SOUTHEAST COLORADO...

CITY           SKY/WX    TMP DP  RH WIND       PRES   REMARKS
PUEBLO         CLOUDY    56  48  74 N6        30.04R
LA JUNTA       RAIN      56  53  90 E9        30.05R
LAMAR          CLOUDY    55  54  96 E9        30.02F
SPRINGFIELD      N/A     54  53  97 NE7       30.03F
$$



USA.gov is the U.S. government's official web portal to all federal, state and local government web resources and services.